Previsão horária em Abbiategrasso

Hoje, 22 Janeiro, Sexta-feira

Tempo Temperatura Precipitação Vento Pressão Humidade
00:00 +5°C° 0.4 mm 1 m/s 744 mmHg 96%
01:00 +5°C° 0.4 mm 1 m/s 744 mmHg 97%
02:00 +5°C° 0.2 mm 1 m/s 743 mmHg 97%
03:00 +5°C° 0.2 mm 1 m/s 743 mmHg 97%
04:00 +5°C° 0.2 mm 1 m/s 742 mmHg 97%
05:00 +5°C° 0.1 mm 1 m/s 742 mmHg 97%
06:00 +4°C° 0.1 mm 0 m/s 742 mmHg 97%
07:00 +4°C° 0.1 mm 0 m/s 742 mmHg 97%
08:00 +5°C° 0 mm 0 m/s 741 mmHg 96%
09:00 +5°C° 0 mm 0 m/s 741 mmHg 96%
10:00 +5°C° 0 mm 0 m/s 741 mmHg 95%
11:00 +5°C° 0.1 mm 0 m/s 740 mmHg 95%
12:00 +5°C° 0.1 mm 0 m/s 739 mmHg 94%
13:00 +7°C° 0.1 mm 1 m/s 738 mmHg 94%
14:00 +7°C° 1.8 mm 1 m/s 737 mmHg 95%
15:00 +7°C° 1.8 mm 1 m/s 736 mmHg 96%
16:00 +6°C° 1.8 mm 2 m/s 735 mmHg 97%
17:00 +6°C° 1.4 mm 2 m/s 734 mmHg 96%
18:00 +5°C° 1.4 mm 3 m/s 734 mmHg 95%
19:00 +5°C° 1.4 mm 3 m/s 733 mmHg 95%
20:00 +5°C° 1.7 mm 3 m/s 732 mmHg 94%
21:00 +6°C° 1.7 mm 2 m/s 732 mmHg 94%
22:00 +6°C° 1.7 mm 2 m/s 731 mmHg 94%
23:00 +6°C° 2.6 mm 2 m/s 731 mmHg 94%

Amanhã, 23 Janeiro, Sábado

Tempo Temperatura Precipitação Vento Pressão Humidade
00:00 +6°C° 2.6 mm 2 m/s 731 mmHg 95%
01:00 +6°C° 2.6 mm 2 m/s 731 mmHg 96%
02:00 +6°C° 1.8 mm 2 m/s 732 mmHg 95%
03:00 +6°C° 1.8 mm 2 m/s 732 mmHg 94%
04:00 +6°C° 1.8 mm 2 m/s 733 mmHg 94%
05:00 +6°C° 0.3 mm 2 m/s 733 mmHg 92%
06:00 +6°C° 0.3 mm 2 m/s 734 mmHg 91%
07:00 +7°C° 0.3 mm 1 m/s 734 mmHg 89%
08:00 +7°C° 0.1 mm 1 m/s 734 mmHg 85%
09:00 +7°C° 0.1 mm 1 m/s 735 mmHg 81%
10:00 +7°C° 0.1 mm 1 m/s 735 mmHg 77%
11:00 +8°C° 0 mm 1 m/s 735 mmHg 73%
12:00 +8°C° 0 mm 1 m/s 735 mmHg 68%
13:00 +9°C° 0 mm 1 m/s 735 mmHg 63%
14:00 +9°C° 0 mm 1 m/s 735 mmHg 63%
15:00 +9°C° 0 mm 1 m/s 735 mmHg 63%
16:00 +8°C° 0 mm 0 m/s 734 mmHg 63%
17:00 +7°C° 0 mm 0 m/s 735 mmHg 66%
18:00 +6°C° 0 mm 0 m/s 735 mmHg 69%
19:00 +5°C° 0 mm 0 m/s 735 mmHg 72%
20:00 +5°C° 0 mm 0 m/s 736 mmHg 72%
21:00 +5°C° 0 mm 1 m/s 736 mmHg 73%
22:00 +5°C° 0 mm 1 m/s 736 mmHg 73%
23:00 +5°C° 0 mm 1 m/s 736 mmHg 71%

Depois de amanhã, 24 Janeiro, Domingo

Tempo Temperatura Precipitação Vento Pressão Humidade
00:00 +4°C° 0 mm 1 m/s 737 mmHg 69%
01:00 +4°C° 0 mm 1 m/s 737 mmHg 67%
02:00 +4°C° 0 mm 1 m/s 737 mmHg 65%
03:00 +3°C° 0 mm 1 m/s 737 mmHg 63%
04:00 +3°C° 0 mm 1 m/s 737 mmHg 61%
05:00 +3°C° 0 mm 1 m/s 737 mmHg 60%
06:00 +3°C° 0 mm 1 m/s 738 mmHg 60%
07:00 +2°C° 0 mm 1 m/s 738 mmHg 59%
08:00 +3°C° 0 mm 1 m/s 738 mmHg 57%
09:00 +4°C° 0 mm 1 m/s 739 mmHg 56%
10:00 +4°C° 0 mm 1 m/s 739 mmHg 54%
11:00 +5°C° 0 mm 1 m/s 739 mmHg 51%
12:00 +6°C° 0 mm 1 m/s 739 mmHg 49%
13:00 +7°C° 0 mm 1 m/s 739 mmHg 46%
14:00 +7°C° 0 mm 1 m/s 739 mmHg 48%
15:00 +7°C° 0 mm 1 m/s 739 mmHg 51%
16:00 +7°C° 0 mm 1 m/s 739 mmHg 53%
17:00 +5°C° 0 mm 0 m/s 739 mmHg 58%
18:00 +4°C° 0 mm 0 m/s 740 mmHg 62%
19:00 +3°C° 0 mm 0 m/s 740 mmHg 66%
20:00 +4°C° 0 mm 1 m/s 740 mmHg 68%
21:00 +4°C° 0 mm 1 m/s 740 mmHg 70%
22:00 +4°C° 0 mm 1 m/s 740 mmHg 73%
23:00 +3°C° 0 mm 1 m/s 740 mmHg 72%

25 Janeiro, Segunda-feira

Tempo Temperatura Precipitação Vento Pressão Humidade
00:00 +3°C° 0 mm 1 m/s 740 mmHg 72%
01:00 +3°C° 0 mm 1 m/s 740 mmHg 72%
02:00 +3°C° 0 mm 1 m/s 740 mmHg 68%
03:00 +3°C° 0 mm 1 m/s 741 mmHg 65%
04:00 +2°C° 0 mm 2 m/s 741 mmHg 62%
05:00 +1°C° 0 mm 2 m/s 742 mmHg 62%
06:00 +1°C° 0 mm 2 m/s 743 mmHg 61%
07:00 +2°C° 0 mm 1 m/s 744 mmHg 61%
08:00 +2°C° 0 mm 2 m/s 744 mmHg 59%
09:00 +2°C° 0 mm 2 m/s 745 mmHg 57%
10:00 +3°C° 0 mm 2 m/s 746 mmHg 54%
11:00 +3°C° 0 mm 3 m/s 746 mmHg 48%
12:00 +5°C° 0 mm 3 m/s 747 mmHg 42%
13:00 +7°C° 0 mm 3 m/s 747 mmHg 36%
14:00 +7°C° 0 mm 3 m/s 747 mmHg 36%
15:00 +7°C° 0 mm 2 m/s 747 mmHg 37%
16:00 +7°C° 0 mm 2 m/s 748 mmHg 38%
17:00 +6°C° 0 mm 2 m/s 748 mmHg 41%
18:00 +5°C° 0 mm 2 m/s 749 mmHg 44%
19:00 +4°C° 0 mm 2 m/s 750 mmHg 47%
20:00 +3°C° 0 mm 2 m/s 751 mmHg 48%
21:00 +3°C° 0 mm 2 m/s 751 mmHg 50%
22:00 +2°C° 0 mm 2 m/s 752 mmHg 51%
23:00 +2°C° 0 mm 2 m/s 752 mmHg 51%

26 Janeiro, Terça-feira

Tempo Temperatura Precipitação Vento Pressão Humidade
00:00 +1°C° 0 mm 2 m/s 752 mmHg 51%
01:00 +1°C° 0 mm 2 m/s 752 mmHg 52%
02:00 +1°C° 0 mm 2 m/s 752 mmHg 52%
03:00 +1°C° 0 mm 2 m/s 752 mmHg 52%
04:00 +1°C° 0 mm 2 m/s 753 mmHg 52%
05:00 +1°C° 0 mm 2 m/s 753 mmHg 52%
06:00 +1°C° 0 mm 2 m/s 753 mmHg 52%
07:00 -1°C° 0 mm 2 m/s 753 mmHg 52%
08:00 +1°C° 0 mm 2 m/s 753 mmHg 50%
09:00 +2°C° 0 mm 2 m/s 753 mmHg 47%
10:00 +3°C° 0 mm 2 m/s 753 mmHg 44%
11:00 +4°C° 0 mm 2 m/s 753 mmHg 42%
12:00 +5°C° 0 mm 2 m/s 753 mmHg 39%
13:00 +6°C° 0 mm 2 m/s 752 mmHg 37%
14:00 +6°C° 0 mm 2 m/s 752 mmHg 39%
15:00 +6°C° 0 mm 2 m/s 752 mmHg 42%
16:00 +6°C° 0 mm 2 m/s 752 mmHg 45%
17:00 +5°C° 0 mm 2 m/s 752 mmHg 48%
18:00 +5°C° 0 mm 1 m/s 753 mmHg 50%
19:00 +4°C° 0 mm 1 m/s 753 mmHg 53%
20:00 +4°C° 0 mm 1 m/s 753 mmHg 54%
21:00 +4°C° 0 mm 1 m/s 753 mmHg 55%
22:00 +4°C° 0 mm 1 m/s 753 mmHg 56%
23:00 +3°C° 0 mm 1 m/s 753 mmHg 56%

27 Janeiro, Quarta-feira

Tempo Temperatura Precipitação Vento Pressão Humidade
00:00 +3°C° 0 mm 1 m/s 753 mmHg 56%
01:00 +2°C° 0 mm 0 m/s 753 mmHg 57%
02:00 +2°C° 0 mm 0 m/s 752 mmHg 57%
03:00 +2°C° 0 mm 0 m/s 752 mmHg 57%
04:00 +1°C° 0 mm 0 m/s 752 mmHg 58%
05:00 +1°C° 0 mm 0 m/s 751 mmHg 58%
06:00 +1°C° 0 mm 0 m/s 751 mmHg 58%
07:00 +1°C° 0 mm 0 m/s 751 mmHg 58%
08:00 +2°C° 0 mm 0 m/s 751 mmHg 58%
09:00 +3°C° 0 mm 1 m/s 751 mmHg 57%
10:00 +4°C° 0 mm 1 m/s 751 mmHg 57%
11:00 +5°C° 0 mm 1 m/s 751 mmHg 55%
12:00 +6°C° 0 mm 1 m/s 751 mmHg 54%
13:00 +6°C° 0 mm 2 m/s 751 mmHg 53%
14:00 +6°C° 0 mm 2 m/s 751 mmHg 55%
15:00 +7°C° 0 mm 2 m/s 751 mmHg 57%
16:00 +7°C° 0 mm 2 m/s 752 mmHg 59%
17:00 +6°C° 0 mm 2 m/s 752 mmHg 61%
18:00 +4°C° 0 mm 3 m/s 753 mmHg 63%
19:00 +3°C° 0 mm 3 m/s 753 mmHg 65%
20:00 +4°C° 0 mm 2 m/s 754 mmHg 65%
21:00 +4°C° 0 mm 2 m/s 754 mmHg 65%
22:00 +3°C° 0 mm 2 m/s 754 mmHg 66%
23:00 +4°C° 0 mm 1 m/s 754 mmHg 66%
Mostrar mais